Grazzanise, Italy

5:25 AM CEST on April 25, 2018 (GMT +0200)
Grazzanise Mil

Weather History for LIRM - January, 2013

Change the Weather History Date:

Friday, January 11, 2013

  Actual Average (LIRN) Record (LIRN)
Temperature  
Mean Temperature 48 °F -  
Max Temperature 58 °F 55 °F 64 °F (2016)
Min Temperature 39 °F 38 °F 30 °F (2017)
Degree Days  
Heating Degree Days 16    
Moisture  
Dew Point 42 °F    
Average Humidity 83    
Maximum Humidity 93    
Minimum Humidity 63    
Precipitation  
Precipitation 0.04 in 0.13 in - ()
Sea Level Pressure  
Sea Level Pressure 29.80 in    
Wind  
Wind Speed 5 mph ()    
Max Wind Speed 25 mph    
Max Gust Speed 30 mph    
Visibility 3.7 miles    
Events Fog , Rain    
Averages and records for this station are not official NWS values.
T = Trace of Precipitation, MM = Missing Value Source: Averaged Metar Reports

Daily Weather History Graph

Daily Weather History Graph

Search for Another Location

Airport or City:

Astronomy

Jan. 11, 2013 Rise Set
Actual Time 7:27 AM CET 4:55 PM CET
Civil Twilight 6:57 AM CET 5:26 PM CET
Nautical Twilight 6:23 AM CET 6:00 PM CET
Astronomical Twilight 5:50 AM CET 6:33 PM CET
Moon 6:46 AM CET (1/11) 4:53 PM CET (1/11)
Length of Visible Light 10h 28m
Length of Day
9h 27m
Waning Crescent, 0% of the Moon is Illuminated
Jan 11
Waning Crescent
Jan 11
New
Jan 19
First Quarter
Jan 27
Full
Feb 3
Last Quarter

Hourly Weather History & Observations

Time (CET) Temp. Windchill Dew Point Humidity Pressure Visibility Wind Dir Wind Speed Gust Speed Precip Events Conditions
12:55 AM 46.4 °F 45.2 °F 41.0 °F 81% 29.83 in 1.9 mi North 3.5 mph - N/A   Mostly Cloudy
1:00 AM 46 °F - 42 °F 80% 29.84 in 2 mi North 3.5 mph - -   Mist
1:55 AM 46.4 °F 45.2 °F 41.0 °F 81% 29.83 in 1.9 mi NNE 3.5 mph - N/A   Mostly Cloudy
2:55 AM 46.4 °F 45.2 °F 41.0 °F 81% 29.83 in 1.9 mi NE 3.5 mph - N/A   Mostly Cloudy
3:55 AM 41.0 °F 39.0 °F 37.4 °F 87% 29.83 in 0.3 mi North 3.5 mph - N/A Fog Fog
4:00 AM 41 °F - 37 °F 80% 29.84 in 0 mi North 3.5 mph - - Fog Partial Fog
4:55 AM 41.0 °F 39.0 °F 37.4 °F 87% 29.83 in 0.2 mi NNE 3.5 mph - N/A Fog Fog
5:55 AM 39.2 °F - 35.6 °F 87% 29.83 in 0.2 mi Calm Calm - N/A Fog Fog
6:55 AM 39.2 °F - 35.6 °F 87% 29.83 in 0.2 mi NE 2.3 mph - N/A Fog Fog
7:55 AM 41.0 °F - 37.4 °F 87% 29.83 in 0.1 mi NE 2.3 mph - N/A Fog Fog
8:55 AM 42.8 °F 40.1 °F 39.2 °F 87% 29.86 in 0.2 mi North 4.6 mph - N/A Fog Fog
9:55 AM 44.6 °F 43.1 °F 41.0 °F 87% 29.86 in 1.0 mi ENE 3.5 mph - N/A   Scattered Clouds
10:00 AM 45 °F - 40 °F 77% 29.86 in 1 mi ENE 3.5 mph - - Fog Light Fog
10:55 AM 51.8 °F - 46.4 °F 82% 29.83 in - East 4.6 mph - N/A   Partly Cloudy
11:55 AM 57.2 °F - 51.8 °F 82% 29.80 in 3.1 mi South 2.3 mph - N/A   Scattered Clouds
12:55 PM 55.4 °F - 51.8 °F 88% 29.77 in 5.0 mi SW 5.8 mph - N/A   Mostly Cloudy
1:00 PM 56 °F - 51 °F 79% 29.79 in 5 mi SW 5.8 mph - -   Mist
1:55 PM 57.2 °F - 51.8 °F 82% 29.74 in 5.0 mi SSW 5.8 mph - N/A   Mostly Cloudy
2:55 PM 55.4 °F - 48.2 °F 77% 29.74 in 6.2 mi West 23.0 mph - N/A   Scattered Clouds
4:00 PM 53 °F - 44 °F 63% 29.77 in 7 mi West 25.3 mph - -   Mostly Cloudy
4:55 PM 51.8 °F - 42.8 °F 71% 29.74 in 6.2 mi West 18.4 mph 29.9 mph N/A   Scattered Clouds
5:55 PM 51.8 °F - 44.6 °F 76% 29.74 in 6.2 mi WSW 16.1 mph - N/A Rain Light Rain
6:55 PM 51.8 °F - 46.4 °F 82% 29.74 in 6.2 mi West 13.8 mph - N/A   Scattered Clouds
7:00 PM 52 °F - 46 °F 71% 29.75 in 7 mi West 13.8 mph - - Rain Light Rain Showers
7:55 PM 48.2 °F - 46.4 °F 93% 29.74 in 6.2 mi Calm Calm - N/A   Scattered Clouds
8:55 PM 44.6 °F 42.2 °F 42.8 °F 93% 29.74 in 6.2 mi NE 4.6 mph - N/A   Partly Cloudy
9:55 PM 41.0 °F - 39.2 °F 93% 29.77 in 6.2 mi Calm Calm - N/A   Scattered Clouds
10:00 PM 40 °F - 39 °F 93% 29.78 in 9 mi Calm Calm - -   Partly Cloudy
10:55 PM 41.0 °F 38.0 °F 39.2 °F 93% 29.80 in 6.2 mi NNE 4.6 mph - N/A   Scattered Clouds
11:55 PM 41.0 °F - 37.4 °F 87% 29.80 in 6.2 mi ENE 2.3 mph - N/A   Partly Cloudy